CZ-4C DEB, 43266

Orbit data source: Space-Track

CZ-4C DEB, 43266 is space debris in SSO originally from a launch on Sat, 31 Mar 2018 UTC launched from the Taiyaun Space Center, China (TSC). Debris objects in space refer to the collection of defunct objects orbiting the Earth. Examples of debris include non-operational satellites, rocket bodies, and fragments generated from explosions, collisions, or faulty payload assembly.

Loading next visibility...
Identifier
43266, 2018-031H
Orbit
SSO
Country
Flag of CNCN / PRC
Related business
Manufacturer
Unknown
Mission
Spacecraft
Bus & Motor
Unknown
Mass
Unknown
Launch date (UTC)
2018-03-31 (8 years ago)
Launch vehicle
Unknown
Launch site
Taiyaun Space Center, China (TSC)
Object type
Payload
Rocket body
Debris
Shape & HBR
Unknown shape, 0.1 m
Radar Cross Section
Small (<0.1 m²)

Expand to show TLE details & history
Last TLE update: 18 hours ago

TLE from 18 hours ago
0 CZ-4C DEB
1 43266U 18031H   26126.09303285  .00010406  00000-0  55153-3 0  9994
2 43266  98.1702 304.8396 0020842  78.6064 281.7507 15.15414284440395
Epoch: 2026-05-06T02:13Z
TLE epoch observation values (Epoch: 2026-05-06T02:13:58.038Z)
Latitude
0.00007°
Longitude
47.38929°
Altitude
519.883 km
Speed
7.605 km/s
True Right ascension
20h 19m 21s
True Declination
0° 00' 00"
Sunlit
Object was in daylight at epoch
Visualization orbit readout
Latitude
Unknown
Longitude
Unknown
Altitude
Unknown
Speed
Unknown
Apparent Right ascension
Unknown
Apparent Declination
Unknown
Sunlit
N/A
Visualization observer readout
Local Sidereal Time
04:09:48
Azimuth
Unknown
Elevation
Unknown
Doppler factor
Unknown
Orbital elements
Apogee altitude
531.098 km
Perigee altitude
502.357 km
Semi-major axis
6,894.864 km
Eccentricity
0.00208
Inclination
98.1702°
RAAN
304.8396°
Arg. of periapsis
78.6064°
True anomaly
281.51675°
Mean anomaly
281.7507°
Eccentric anomaly
281.63374°
Mean motion
3.79101 °/min
Orbital period
94.96 mins
BSTAR
0.00055153
Loading maneuver chart data...
Computing Atmospheric mass density...
Loading historical data...
Loading historical data...
Loading historical data...
Loading historical data...
Loading historical data...
Loading historical data...
Loading historical data...

Documentation

Showing up to 5 results
|